User: anonymous
Location: Montr�al
(45.5000°N, 73.5830°W)
Time: 21:34:14
(UTC-04:00)
Language:

Cosmos 1470 Rocket - Orbit

View from above orbital plane
View from above orbital plane
View from above satellite
View from above satellite

Ground track
Ground track

The orbit data is extracted from the following two-line orbital elements,

1 14148U 83061B   14205.47162191  .00000104  00000-0  99101-5 0  7010
2 14148 082.5196 180.9012 0021178 217.4365 260.7196 14.82685227677926
Epoch (UTC): 24 July 2014 11:19:08
Eccentricity: 0.0021178
inclination: 82.5196°
perigee height: 606 km
apogee height: 635 km
right ascension of ascending node: 180.9012°
argument of perigee: 217.4365°
revolutions per day: 14.82685227
mean anomaly at epoch: 260.7196°
orbit number at epoch: 67792

The dashed part of the orbit path shows where the satellite is in the earth's shadow,  

DLR